Lid_Strength_Index
21 20 19 18 15 16 16 16 16 15 15 15 15 14 14 14 14 14 14 14 14 13 12 11 11 10 9 8 8 8 7 7 8 6 9 11 11 12 11 11 11 11 11
22 21 20 18 16 16 16 16 16 16 15 15 15 15 15 14 15 16 16 14 14 14 14 12 11 10 10 9 8 8 8 7 7 7 8 11 12 12 13 13 13 12 12
23 22 21 21 21 17 17 16 16 16 16 15 15 15 15 15 15 14 15 15 15 14 14 13 12 12 12 10 9 9 9 9 7 7 8 12 13 13 13 13 13 13 14
24 23 22 22 22 17 17 16 16 16 16 15 15 15 15 15 14 14 14 20 19 18 15 14 13 13 13 11 10 9 9 9 9 9 10 10 12 13 14 14 14 14 14
25 24 22 23 23 19 17 16 16 15 15 15 17 19 18 19 18 18 19 22 20 20 18 15 14 13 12 11 11 11 10 10 9 10 11 12 13 14 14 14 14 14 15
24 23 24 25 24 22 21 21 21 21 21 22 21 22 21 18 14 13 16 22 22 20 19 18 14 13 13 12 10 10 10 11 11 11 12 13 13 13 13 15 15 15 15
22 21 21 21 20 20 19 20 20 22 22 22 22 22 20 21 14 13 14 19 21 20 19 17 16 14 14 14 13 12 12 10 11 12 12 13 14 13 14 15 15 15 16
20 19 19 19 19 18 19 19 20 21 20 20 19 18 18 17 14 13 13 17 17 17 17 17 18 17 16 14 14 14 14 14 12 12 13 13 13 13 13 14 15 17 18
19 18 18 18 18 18 18 19 20 20 19 19 18 18 18 17 14 14 13 16 17 17 16 16 16 16 14 13 15 15 15 16 13 12 11 11 11 11 12 14 15 15 16
17 17 17 17 18 18 18 18 18 18 17 17 17 18 18 17 15 14 14 15 17 17 17 17 15 15 13 12 16 17 18 16 16 17 16 15 15 15 13 14 15 17 17
17 16 16 17 18 17 18 18 19 19 19 20 19 19 19 18 17 14 14 15 16 17 17 17 17 15 14 13 13 17 17 17 18 19 18 19 18 18 17 17 18 17 19
17 18 18 18 17 17 19 20 21 21 21 22 22 21 19 19 17 15 13 13 14 16 17 17 17 14 13 13 14 13 13 15 21 22 23 21 21 21 21 20 20 20 20
20 20 20 20 18 18 21 20 21 22 22 21 21 21 20 19 19 15 13 13 13 16 17 16 14 13 13 15 14 14 17 21 21 22 21 22 22 22 23 23 23 24 24
21 21 20 21 20 21 19 18 20 21 21 21 21 21 20 20 20 21 19 19 17 17 17 20 18 15 14 14 20 18 20 21 21 22 22 22 23 23 24 24 25 25 26
21 21 20 19 21 20 19 19 19 19 19 21 21 21 23 21 20 17 17 21 22 19 20 24 26 25 23 23 21 21 21 22 22 22 24 24 23 23 23 24 25 28 26
23 22 22 21 20 19 19 19 16 15 15 15 15 17 19 17 15 15 14 14 14 14 17 19 20 22 22 21 22 21 23 22 22 22 23 23 23 24 23 24 23 24 24
23 22 21 21 20 20 19 19 19 17 15 14 14 14 14 14 14 14 14 14 14 13 16 16 18 18 19 21 22 22 21 20 23 24 24 23 23 23 23 23 24 24 23
22 22 21 20 21 20 19 20 20 19 20 19 17 16 15 15 15 15 15 15 19 19 23 21 20 19 20 20 21 21 21 23 24 24 24 25 26 25 26 26 25 25 25
22 21 21 22 22 21 22 22 24 23 23 21 20 18 19 17 17 17 17 20 22 22 22 22 21 21 21 22 22 21 22 22 21 22 21 21 21 22 21 21 21 21 21
21 20 23 24 24 24 24 24 24 24 24 24 24 23 22 22 22 21 20 21 21 22 22 22 22 21 21 21 21 21 21 21 21 21 21 21 21 21 22 23 24 24 26
22 22 24 26 25 26 26 26 26 26 26 26 26 24 17 25 25 24 23 23 22 22 22 22 21 21 21 21 21 21 22 22 22 23 24 25 26 26 28 28 30 30 31
25 27 28 28 27 26 27 28 28 28 28 28 28 26 19 27 26 25 25 24 23 23 22 22 23 23 24 24 24 25 26 27 28 28 28 29 29 30 31 32 33 33 34
30 30 30 31 31 30 30 31 31 31 32 31 31 30 30 31 30 30 30 29 29 28 28 28 28 28 28 29 29 29 29 29 29 30 30 32 32 33 34 34 35 35 35
33 33 34 34 34 34 35 33 33 33 33 33 33 32 31 31 31 30 30 29 29 30 32 33 32 31 32 31 33 33 33 33 34 32 32 34 35 36 36 36 35 35 34
35 35 35 36 37 36 34 33 33 34 33 32 31 33 32 31 31 31 30 30 30 30 29 30 30 31 31 31 31 34 35 29 31 34 35 33 33 35 35 34 33 33 32
35 35 36 36 35 36 35 33 32 32 32 30 30 31 31 30 30 29 29 29 29 29 29 30 31 31 31 30 30 29 29 25 28 28 31 33 31 32 33 30 31 30 29